Regional Weather Roundup
Issued by NWS

Home | Current Version | Previous Version | Text Only | Print | Product List | Glossary Off
Versions: 1 2 3 4 5 6 7 8 9 10 11 12 13 14 15 16 17 18 19 20 21 22 23 24 25 26 27 28 29 30 31 32 33 34 35 36 37 38 39 40 41 42 43 44 45 46 47 48 49 50

000
ASUS43 KMKX 031011
RWRWI

WISCONSIN REGIONAL WEATHER ROUNDUP
NATIONAL WEATHER SERVICE MILWAUKEE/SULLIVAN WI
500 AM CDT MON AUG 03 2015

NOTE: "FAIR" INDICATES FEW OR NO CLOUDS BELOW 12,000 FEET WITH NO
SIGNIFICANT WEATHER AND/OR OBSTRUCTIONS TO VISIBILITY.

WIZ001-002-006>008-014>016-023>028-031100-
NORTHWEST WISCONSIN

CITY           SKY/WX    TMP DP  RH WIND       PRES   REMARKS
SUPERIOR ARPT  CLEAR     50  47  89 S6        29.78F
ASHLAND        MOCLDY    56  49  77 SW6       29.77S
HAYWARD        CLEAR     50  47  89 CALM      29.82R
SIREN          CLEAR     55  48  77 W6        29.84R
CUMBERLAND     CLEAR     52  46  82 W3        29.84S
RICE LAKE      CLEAR     52  47  84 W3        29.85S
CHETEK         CLEAR     57  48  72 W5        29.84S
LADYSMITH      CLEAR     56  50  80 W7        29.83S
EAU CLAIRE     CLEAR     56  49  77 W6        29.83S
MENOMONIE      CLEAR     58  51  76 W6        29.85R
NEW RICHMOND   CLEAR     53  50  90 W5        29.86S
OSCEOLA        CLEAR     52  52 100 CALM      29.89R
$$

WIZ003>005-009-010-017-018-031100-
NORTH CENTRAL WISCONSIN

CITY           SKY/WX    TMP DP  RH WIND       PRES   REMARKS
MANITOWISH WTR CLOUDY    54  50  87 W3        29.78R
ARBOR VITAE    MOCLDY    57  52  84 CALM      29.78R
WOODRUFF       MOCLDY    57  52  84 CALM      29.78R
RHINELANDER    CLOUDY    54  51  90 W5        29.78S
EAGLE RIVER    CLOUDY    56  48  74 W3        29.76S
LAND O LAKES   CLOUDY    59  48  67 CALM      29.77S
PHILLIPS       CLEAR     52  49  91 W3        29.79S
TOMAHAWK       PTCLDY    50  48  93 W3        29.79S
MEDFORD        CLEAR     52  49  88 W5        29.81S
MERRILL        NOT AVBL
$$

WIZ029-030-035-036-043>047-031100-
CENTRAL WISCONSIN

CITY           SKY/WX    TMP DP  RH WIND       PRES   REMARKS
WAUSAU         CLEAR     57  51  80 NW5       29.78R
MOSINEE        CLEAR     55  50  82 NW7       29.80S
MARSHFIELD     CLEAR     55  48  77 W7        29.81S
STEVENS POINT  CLEAR     57  51  81 W5        29.81R
WAUPACA        CLEAR     60  55  84 W3        29.79R
WAUTOMA        CLEAR     57  55  93 W5        29.82R
WISC RAPIDS    CLEAR     57  50  77 W6        29.82R
CAMP DOUGLAS   CLEAR     49  49 100 W8        29.82S
$$

WIZ011>013-019>022-031-037>040-048>050-031100-
NORTHEAST WISCONSIN

CITY           SKY/WX    TMP DP  RH WIND       PRES   REMARKS
ANTIGO         PTCLDY    50  49  96 CALM      29.79R
SHAWANO        PTCLDY    59  54  84 W7        29.77S
OCONTO         CLEAR     56  56 100 W5        29.74R
STURGEON BAY   CLEAR     61  54  77 W7        29.76R
GREEN BAY      CLEAR     58  56  93 W8        29.76R
MANITOWOC      PTCLDY    61  58  90 MISG      29.76R
APPLETON       CLEAR     55  52  88 W9        29.78S
CLINTONVILLE   CLEAR     55  52  88 CALM      29.78R
OSHKOSH        CLEAR     60  55  83 W7        29.78R
$$

WIZ032>034-041-042-053>061-031100-
SOUTHWEST WISCONSIN

CITY           SKY/WX    TMP DP  RH WIND       PRES   REMARKS
LA CROSSE      CLEAR     60  53  77 CALM      29.84S
SPARTA         CLEAR     49  47  93 CALM      29.85S
VIROQUA        CLEAR     56  50  80 W5        29.87R
BOSCOBEL       CLEAR     57  55  93 CALM      29.86R
PRAIRIE DU CHI CLEAR     61  57  86 CALM      29.86R
PLATTEVILLE    CLEAR     64  57  78 CALM      29.86R
$$

WIZ056-057-062-063-064-067-068-031100-
SOUTH CENTRAL WISCONSIN

CITY           SKY/WX    TMP DP  RH WIND       PRES   REMARKS
REEDSBURG      CLEAR     61  53  75 W3        29.84R
BARABOO/DELLS  CLEAR     60  50  69 CALM      29.84R
LONE ROCK      CLEAR     61  55  81 W5        29.85R
MINERAL POINT  CLEAR     63  55  77 NW3       29.86R
MADISON        CLEAR     65  57  75 NW6       29.82R
MIDDLETON      PTCLDY    62  56  83 NW3       29.84R
WATERTOWN      CLEAR     59  59 100 CALM      29.80R
MONROE         PTCLDY    64  57  77 NW6       29.83R
JANESVILLE     CLEAR     63  59  88 NW3       29.80R
$$

WIZ051-052-058>065-066-070>072-031100-
SOUTHEAST WISCONSIN

CITY           SKY/WX    TMP DP  RH WIND       PRES   REMARKS
MILWAUKEE      PTCLDY    66  59  78 NW5       29.77R
WAUKESHA       CLEAR     61  55  82 W6        29.80R
MILWAUKEE/TIMM FAIR      63  55  77 NW7       29.78R
RACINE         CLEAR     64  60  87 W6        29.79R
BURLINGTON     CLEAR     60  58  93 NW7       29.79R
KENOSHA        MOCLDY    63  61  93 W5        29.78R
FOND DU LAC    PTCLDY    61  56  83 NW9       29.78R
SHEBOYGAN      CLEAR     62  59  90 W7        29.76R
WEST BEND      CLEAR     61  55  82 W3        29.78S
JUNEAU         PTCLDY    61  55  81 W3        29.81R
$$

LSZ147-162-031100-
LAKE SUPERIOR

STATION/POSITION TIME  TEMP    WIND        PRES    WAVE
                       AIR SEA DIR/SP/G            HT/PER
                 (UTC) (F)     (DEG/KT/KT) (MB)    (FT/S)
W MID LAKE BUOY  0950   58 55  260/ 10/ 12 1005.9S   1/ 3
DEVILS ISLAND    1000   60     260/ 18/ 22 1007.0R
PORT WING        0940   59     210/  6/ 12 1008.1S
SAXON HARBOR     0940   60                 1007.1S
$$

LMZ867-665-643>646-031100-
LAKE MICHIGAN

STATION/POSITION TIME  TEMP    WIND        PRES    WAVE
                       AIR SEA DIR/SP/G            HT/PER
                 (UTC) (F)     (DEG/KT/KT) (MB)    (FT/S)
CHAMBERS ISLAND  0900   61     280/  5/ 13 1006.1S
S GREEN BAY BUOY 1000   61 63  290/ 12/ 14 1008.3R
N MID LAKE BUOY  0950   65 68  290/ 14/ 14 1005.0R   2/ 3
NORTHPORT PIER   0900   64     290/  9/ 12 1005.8S
ALGOMA LAKESHORE 0912           CALM  /  4   N/A
KEWAUNEE LAKESHO 0900   62     290/  5/  7 1006.2R
SHEBOYGAN LAKESH 1000   65     290/ 11/ 13 1007.6R
PORT WASHINGTON  0900   66     310/  6/  9 1008.1R
ATWATER BUOY     1000   63 62  290/ 10/ 12 1009.3R
MILWAUKEE LAKESH 0900   67     310/  4/  5   N/A
KENOSHA   LAKESH 1000   68     280/  8/ 10 1008.1R
$$

TC  - TEMPERATURE IN CELSIUS
VSB - VISIBILITY IN STATUTE MILES
WCI - WIND CHILL INDEX
HX  - HEAT INDEX



USA.gov is the U.S. government's official web portal to all federal, state and local government web resources and services.